Weather History for Tracy, MN

Change the Weather History Date:

Thursday, September 13, 2012

  Actual Average (KMML) Record (KMML)
Temperature  
Mean Temperature 60 °F -  
Max Temperature 75 °F 72 °F 95 °F (1990)
Min Temperature 46 °F 51 °F 35 °F (1975)
Degree Days  
Heating Degree Days 5    
Growing Degree Days 10 (Base 50)    
Moisture  
Dew Point 40 °F    
Average Humidity 53    
Maximum Humidity 89    
Minimum Humidity 21    
Precipitation  
Precipitation 0.00 in - - ()
Sea Level Pressure  
Sea Level Pressure 30.30 in    
Wind  
Wind Speed 4 mph (West)    
Max Wind Speed 12 mph    
Max Gust Speed 21 mph    
Visibility 10 miles    
Events      
Averages and records for this station are not official NWS values.
T = Trace of Precipitation, MM = Missing Value Source: NWS Daily Summary

Daily Weather History Graph

Daily Weather History Graph

Search for Another Location

Airport:

Trip Planner

Search our weather history database for the weather conditions in past years. The results will help you decide how hot, cold, wet, or windy it might be!

Date:

Astronomy

Sep. 13, 2012 Rise Set
Actual Time 6:59 AM CDT 7:35 PM CDT
Civil Twilight 6:30 AM CDT 8:04 PM CDT
Nautical Twilight 5:56 AM CDT 8:39 PM CDT
Astronomical Twilight 5:20 AM CDT 9:14 PM CDT
Moon 4:16 AM CDT (9/13) 6:01 PM CDT (9/13)
Length of Visible Light 13h 34m
Length of Day
12h 35m
Waning Crescent, 7% of the Moon is Illuminated
Sep 13
Waning Crescent
Sep 15
New
Sep 22
First Quarter
Sep 29
Full
Oct 8
Last Quarter

Hourly Weather History & Observations

Time (CDT) Temp. Windchill Dew Point Humidity Pressure Visibility Wind Dir Wind Speed Gust Speed Precip Events Conditions
12:14 AM 54.5 °F - 49.6 °F 84% 30.27 in 10.0 mi West 4.6 mph - N/A   Clear
12:33 AM 54.0 °F - 49.5 °F 85% 30.28 in 10.0 mi West 4.6 mph - N/A   Clear
12:54 AM 53.6 °F - 49.3 °F 85% 30.29 in 10.0 mi West 3.5 mph - N/A   Clear
1:14 AM 53.1 °F - 49.1 °F 86% 30.30 in 10.0 mi West 4.6 mph - N/A   Clear
1:34 AM 52.7 °F - 48.7 °F 86% 30.30 in 10.0 mi West 3.5 mph - N/A   Clear
1:54 AM 52.2 °F - 48.4 °F 87% 30.31 in 10.0 mi West 4.6 mph - N/A   Clear
2:14 AM 51.3 °F - 47.8 °F 88% 30.31 in 10.0 mi West 3.5 mph - N/A   Clear
2:34 AM 50.9 °F - 47.7 °F 89% 30.31 in 10.0 mi West 4.6 mph - N/A   Clear
2:53 AM 50.5 °F - 47.5 °F 89% 30.30 in 10.0 mi Calm Calm - N/A   Clear
3:14 AM 50.0 °F - 46.4 °F 87% 30.30 in 10.0 mi West 3.5 mph - N/A   Clear
3:34 AM 49.6 °F - 45.5 °F 86% 30.30 in 10.0 mi West 4.6 mph - N/A   Clear
3:54 AM 49.1 °F - 45.0 °F 86% 30.30 in 10.0 mi West 3.5 mph - N/A   Clear
4:14 AM 49.1 °F - 44.6 °F 84% 30.31 in 10.0 mi West 4.6 mph - N/A   Clear
4:34 AM 48.6 °F - 43.9 °F 84% 30.31 in 10.0 mi West 4.6 mph - N/A   Clear
4:54 AM 48.2 °F - 43.5 °F 84% 30.31 in 10.0 mi West 4.6 mph - N/A   Clear
5:13 AM 48.2 °F - 43.2 °F 83% 30.31 in 10.0 mi West 4.6 mph - N/A   Clear
5:34 AM 47.7 °F - 42.6 °F 83% 30.31 in 10.0 mi West 4.6 mph - N/A   Clear
5:54 AM 48.0 °F - 42.1 °F 80% 30.31 in 10.0 mi West 4.6 mph - N/A   Clear
6:14 AM 47.3 °F - 41.5 °F 80% 30.32 in 10.0 mi West 4.6 mph - N/A   Clear
6:34 AM 47.3 °F - 41.4 °F 80% 30.33 in 10.0 mi West 4.6 mph - N/A   Clear
6:54 AM 46.8 °F - 41.0 °F 80% 30.33 in 10.0 mi West 4.6 mph - N/A   Clear
7:14 AM 46.0 °F 43.9 °F 40.5 °F 81% 30.34 in 10.0 mi West 4.6 mph - N/A   Clear
7:34 AM 46.4 °F 44.3 °F 40.3 °F 79% 30.34 in 10.0 mi WSW 4.6 mph - N/A   Clear
7:54 AM 46.4 °F - 40.6 °F 80% 30.35 in 10.0 mi Calm Calm - N/A   Clear
8:14 AM 47.3 °F - 41.0 °F 79% 30.35 in 10.0 mi Calm Calm - N/A   Clear
8:33 AM 51.1 °F - 43.2 °F 74% 30.35 in 10.0 mi Calm Calm - N/A   Clear
8:54 AM 56.3 °F - 40.6 °F 56% 30.35 in 10.0 mi Calm Calm - N/A   Clear
9:14 AM 57.4 °F - 42.8 °F 58% 30.36 in 10.0 mi Calm Calm - N/A   Clear
9:34 AM 60.4 °F - 40.5 °F 48% 30.36 in 10.0 mi Calm Calm - N/A   Clear
9:54 AM 62.6 °F - 39.7 °F 43% 30.36 in 10.0 mi Calm Calm - N/A   Clear
10:14 AM 63.7 °F - 34.2 °F 33% 30.36 in 10.0 mi Calm Calm - N/A   Clear
10:34 AM 64.9 °F - 35.1 °F 33% 30.36 in 10.0 mi Calm Calm - N/A   Clear
10:54 AM 66.2 °F - 34.3 °F 31% 30.36 in 10.0 mi SSW 4.6 mph - N/A   Clear
11:14 AM 67.1 °F - 29.8 °F 25% 30.35 in 10.0 mi South 5.8 mph - N/A   Clear
11:34 AM 68.4 °F - 30.7 °F 25% 30.35 in 10.0 mi SSW 6.9 mph - N/A   Clear
11:54 AM 69.1 °F - 28.4 °F 22% 30.34 in 10.0 mi South 8.1 mph - N/A   Clear
12:14 PM 70.0 °F - 30.9 °F 24% 30.34 in 10.0 mi SW 5.8 mph - N/A   Clear
12:34 PM 71.1 °F - 31.8 °F 23% 30.33 in 10.0 mi SW 10.4 mph - N/A   Clear
12:54 PM 71.8 °F - 32.9 °F 24% 30.33 in 10.0 mi SSW 9.2 mph - N/A   Clear
1:14 PM 72.7 °F - 31.3 °F 22% 30.31 in 10.0 mi West 5.8 mph - N/A   Clear
1:34 PM 73.0 °F - 31.8 °F 22% 30.31 in 10.0 mi WNW 5.8 mph 19.6 mph N/A   Clear
1:54 PM 73.2 °F - 33.8 °F 24% 30.30 in 10.0 mi WNW 4.6 mph - N/A   Clear
2:14 PM 73.8 °F - 32.2 °F 22% 30.29 in 10.0 mi NW 10.4 mph 20.7 mph N/A   Scattered Clouds
2:34 PM 74.3 °F - 32.0 °F 21% 30.29 in 10.0 mi WNW 8.1 mph - N/A   Scattered Clouds
2:54 PM 72.9 °F - 31.8 °F 22% 30.28 in 10.0 mi NNW 10.4 mph - N/A   Scattered Clouds
3:14 PM 72.7 °F - 35.6 °F 26% 30.28 in 10.0 mi West 9.2 mph - N/A   Mostly Cloudy
3:34 PM 74.1 °F - 35.4 °F 24% 30.28 in 10.0 mi WNW 11.5 mph 17.3 mph N/A   Scattered Clouds
3:54 PM 72.5 °F - 36.1 °F 27% 30.27 in 10.0 mi WNW 4.6 mph - N/A   Scattered Clouds
4:14 PM 74.1 °F - 35.4 °F 24% 30.27 in 10.0 mi WNW 8.1 mph - N/A   Scattered Clouds
4:34 PM 72.0 °F - 36.9 °F 28% 30.27 in 10.0 mi NW 5.8 mph - N/A   Mostly Cloudy
4:53 PM 72.5 °F - 36.9 °F 27% 30.26 in 10.0 mi NNW 4.6 mph - N/A   Overcast
5:14 PM 74.3 °F - 36.0 °F 25% 30.26 in 10.0 mi Calm Calm - N/A   Mostly Cloudy
5:34 PM 74.5 °F - 34.3 °F 23% 30.26 in 10.0 mi WSW 3.5 mph - N/A   Mostly Cloudy
5:54 PM 73.8 °F - 34.3 °F 24% 30.26 in 10.0 mi NW 5.8 mph - N/A   Scattered Clouds
6:13 PM 71.6 °F - 34.7 °F 26% 30.26 in 10.0 mi NNW 4.6 mph - N/A   Scattered Clouds
6:34 PM 71.6 °F - 36.5 °F 28% 30.26 in 10.0 mi NW 4.6 mph - N/A   Overcast
6:54 PM 70.7 °F - 36.1 °F 28% 30.25 in 10.0 mi Calm Calm - N/A   Scattered Clouds
7:13 PM 67.8 °F - 39.4 °F 35% 30.26 in 10.0 mi Calm Calm - N/A   Clear
7:34 PM 64.4 °F - 42.3 °F 44% 30.26 in 10.0 mi Calm Calm - N/A   Scattered Clouds
7:53 PM 62.6 °F - 43.7 °F 50% 30.26 in 10.0 mi SW 3.5 mph - N/A   Mostly Cloudy
8:14 PM 62.1 °F - 42.8 °F 49% 30.26 in 10.0 mi Calm Calm - N/A   Mostly Cloudy
8:34 PM 62.6 °F - 42.4 °F 48% 30.27 in 10.0 mi SW 3.5 mph - N/A   Overcast
8:54 PM 62.2 °F - 43.0 °F 49% 30.27 in 10.0 mi Calm Calm - N/A   Mostly Cloudy
9:14 PM 63.0 °F - 43.3 °F 49% 30.27 in 10.0 mi SW 3.5 mph - N/A   Overcast
9:34 PM 62.4 °F - 43.7 °F 50% 30.27 in 10.0 mi SW 4.6 mph - N/A   Overcast
9:54 PM 61.7 °F - 45.0 °F 54% 30.27 in 10.0 mi SW 4.6 mph - N/A   Mostly Cloudy
10:13 PM 61.7 °F - 45.0 °F 54% 30.27 in 10.0 mi SW 3.5 mph - N/A   Scattered Clouds
10:34 PM 61.5 °F - 45.5 °F 56% 30.27 in 10.0 mi SW 4.6 mph - N/A   Scattered Clouds
10:54 PM 61.3 °F - 45.0 °F 55% 30.27 in 10.0 mi SW 5.8 mph - N/A   Scattered Clouds
11:14 PM 61.2 °F - 43.9 °F 53% 30.28 in 10.0 mi SW 3.5 mph - N/A   Scattered Clouds
11:34 PM 60.4 °F - 43.9 °F 54% 30.27 in 10.0 mi SW 4.6 mph - N/A   Scattered Clouds
11:54 PM 57.9 °F - 46.2 °F 65% 30.28 in 10.0 mi Calm Calm - N/A   Mostly Cloudy